Home   Weather   Koblenz   Past weeks

Flag for Germany Past Weather in Koblenz, Rhineland-Palatinate, Germany — Yesterday and Last 2 Weeks

Now
30 °F

Chilly.


Feels Like: 23 °F
Forecast: 22 / 38 °F
Wind: 7 mph from Northeast

Location: Buechel

Current Time: Dec 3, 2016 at 1:27:21 am

Latest Report: Dec 3, 2016 at 12:20 am


Visibility: 3 mi

Pressure: 30.18 "Hg

Humidity: 100%

Dew Point: 30 °F

Location of KoblenzLocation

Past Weather in Koblenz — Graph

°F

Koblenz Temperature Yesterday

Maximum temperature yesterday: 43 °F (at 1:20 pm)
Minimum temperature yesterday: 34 °F (at 12:20 am)
Average temperature yesterday: 37 °F

High & Low Weather Summary for the Past Weeks

 TemperatureHumidityPressure
High57 °F (Nov 23, 2:20 pm)100% (Nov 18, 6:20 am)30.48 "Hg (Nov 18, 6:20 am)
Low21 °F (Nov 29, 8:20 am)56% (Nov 30, 12:20 pm)29.42 "Hg (Nov 18, 5:20 am)
Average39 °F85%30.01 "Hg
* Reported Nov 17 11:20 pm — Dec 2 11:20 pm, Koblenz, Weather by CustomWeather, © 2016

Note: Actual official high and low records may vary slightly from our data, if they occured in-between our weather recording intervals... More about our weather records

Advertising

Koblenz Weather History for the Previous 24 Hours

Scroll right to see more
 ConditionsComfort  
Time TempWeatherWind HumidityBarometerVisibility
11:20 pm
Fri, Dec 2
34 °FChilly.7 mph93%30.18 "Hg1 mi
10:20 pm34 °FChilly.8 mph100%30.18 "Hg1 mi
9:20 pm37 °FChilly.8 mph93%30.18 "Hg4 mi
8:20 pm37 °FChilly.6 mph93%30.18 "Hg4 mi
7:20 pm36 °FChilly.3 mph100%30.18 "Hg4 mi
6:20 pm39 °FChilly.6 mph93%30.18 "Hg5 mi
5:20 pm39 °FChilly.8 mph93%30.18 "Hg6 mi
4:20 pm41 °FQuite cool.6 mph100%30.15 "Hg2 mi
3:20 pm41 °FQuite cool.5 mph100%30.15 "HgN/A
2:20 pm43 °FQuite cool.7 mph93%30.15 "Hg6 mi
1:20 pm43 °FQuite cool.6 mph93%30.15 "Hg2 mi
12:20 pm39 °FDrizzle. Fog.3 mph100%30.18 "Hg1 mi
12:02 pm39 °FDrizzle. Fog.3 mph100%30.18 "Hg1 mi
11:20 am39 °FDrizzle. Fog.5 mph100%30.18 "Hg1 mi
10:20 am37 °FDrizzle. Fog.3 mph100%30.18 "Hg1 mi
9:54 am37 °FDrizzle. Fog.5 mph100%30.18 "Hg1 mi
9:20 am37 °FDrizzle. Fog.5 mph93%30.18 "Hg1 mi
8:20 am36 °FDrizzle. Fog.5 mph100%30.15 "Hg1 mi
7:45 am36 °FDrizzle. Fog.5 mph100%30.15 "Hg1 mi
7:20 am36 °FDrizzle. Fog.6 mph100%30.15 "Hg1 mi
6:20 am36 °FDrizzle. Fog.5 mph100%30.15 "Hg1 mi
5:20 am36 °FFog.5 mph100%30.15 "Hg1 mi
4:20 am36 °FChilly.6 mph100%30.15 "Hg0 mi
3:20 am36 °FChilly.5 mph100%30.15 "Hg0 mi
2:20 am36 °FChilly.6 mph100%30.18 "Hg0 mi
1:20 am34 °FChilly.7 mph100%30.18 "Hg0 mi
Weather by CustomWeather, © 2016

See weather overviewHow to use our weather pages